Home > Weather > Guatemala > Past weeks

Flag for Guatemala Past Weather in Guatemala, Guatemala — Yesterday and Last 2 Weeks

Now
79 °F

Scattered clouds.


Feels Like: 80 °F
Forecast: 63 / 84 °F
Wind: 16 mph from North

Location: Guatemala Aeropuertola Aurora

Current Time: May 26, 2016 at 12:32:23 PM

Latest Report: May 26, 2016 at 12:00 PM


Visibility: N/A

Pressure: 30.30 "Hg (25.43 "Hg at 1533m altitude)

Humidity: 51%

Dew Point: 59 °F

Location of GuatemalaLocation

Past Weather in Guatemala — Graph

°F

Guatemala Temperature Yesterday

Maximum temperature yesterday: 84 °F (at 2:00 PM)
Minimum temperature yesterday: 66 °F (at 5:00 AM)
Average temperature yesterday: 74 °F

High & Low Weather Summary for the Past Weeks

 TemperatureHumidityPressure
High86 °F (May 15, 2:00 PM)100% (May 18, 3:00 AM)30.36 "Hg (May 18, 3:00 AM)
Low61 °F (May 16, 6:00 AM)35% (May 12, 1:00 PM)30.15 "Hg (May 18, 4:00 PM)
Average72 °F74%30.27 "Hg
* Reported May 11 11:00 AM — May 26 11:00 AM, Guatemala, Weather by CustomWeather, © 2016

Note: Actual official high and low records may vary slightly from our data, if they occured in-between our weather recording intervals... More about our weather records

Advertising

Guatemala Weather History for the Previous 24 Hours

Scroll right to see more
 ConditionsComfort  
Time TempWeatherWind HumidityBarometerVisibility
11:00 AM
Thu, May 26
79 °FScattered clouds.14 mph51%30.30 "HgN/A
10:00 AM75 °FScattered clouds.14 mph61%30.33 "HgN/A
9:00 AM73 °FPartly sunny.12 mph69%30.33 "Hg5 mi
8:00 AM70 °FPartly sunny.12 mph73%30.33 "Hg5 mi
7:00 AM68 °FScattered clouds.7 mph83%30.33 "HgN/A
6:00 AM66 °FScattered clouds.9 mph88%30.30 "HgN/A
5:00 AM66 °FPassing clouds.9 mph88%30.27 "HgN/A
4:00 AM66 °FPassing clouds.9 mph88%30.27 "HgN/A
3:00 AM66 °FPassing clouds.9 mph88%30.30 "HgN/A
2:00 AM66 °FPassing clouds.7 mph88%30.30 "Hg5 mi
1:00 AM68 °FClear.7 mph83%30.30 "Hg10 mi
12:00 AM70 °FClear.5 mph78%30.33 "Hg10 mi
11:00 PM
Wed, May 25
70 °FPassing clouds.7 mph78%30.33 "HgN/A
10:00 PM72 °FPassing clouds.12 mph73%30.33 "HgN/A
9:00 PM73 °FPassing clouds.9 mph69%30.33 "HgN/A
8:00 PM75 °FPassing clouds.7 mph65%30.33 "Hg5 mi
7:00 PM73 °FPassing clouds.No wind83%30.30 "Hg5 mi
6:00 PM75 °FPartly sunny.7 mph74%30.27 "Hg5 mi
5:00 PM77 °FScattered clouds.9 mph65%30.27 "Hg4 mi
4:00 PM81 °FPartly sunny.7 mph62%30.27 "Hg5 mi
3:00 PM84 °FScattered clouds.7 mph45%30.27 "HgN/A
2:00 PM84 °FScattered clouds.7 mph48%30.30 "HgN/A
1:00 PM82 °FScattered clouds.7 mph45%30.30 "HgN/A
12:00 PM81 °FScattered clouds.12 mph48%30.33 "Hg5 mi
Weather by CustomWeather, © 2016

See weather overviewHow to use our weather pages